| DS18B20 | SHTC3 | PZEM-004T | WiFi | ||||||||
|---|---|---|---|---|---|---|---|---|---|---|---|
| ID | Date d/m/Y & Time | data1 สูง | data2 ต่ำ | data3 นอก | temp pcb | hum pcb | Volt | Amp | Watt | rssi | Time |
| 14863 | 22/08/2026 05:08:44 | 29.7  | 29.9  | 26.5  | 30.7  | 67.8  | 229.1  | 0.04  | 4.6  | -76  | 05:08 |
| 14862 | 22/08/2026 05:04:01 | 29.7  | 29.9  | 26.9  | 30.5  | 67.8  | 231.5  | 0.04  | 4.6  | -78  | 05:04 |
| 14861 | 22/08/2026 04:59:17 | 29.8  | 29.9  | 26.7  | 30.6  | 67.9  | 230.3  | 0.04  | 4.6  | -77  | 04:59 |
| 14860 | 22/08/2026 04:54:34 | 29.8  | 29.9  | 26.7  | 30.7  | 67.9  | 228.7  | 0.04  | 4.6  | -76  | 04:54 |
| 14859 | 22/08/2026 04:49:50 | 29.8  | 30.0  | 26.7  | 30.6  | 67.8  | 230.9  | 0.04  | 4.6  | -76  | 04:49 |
| 14858 | 22/08/2026 04:45:07 | 29.8  | 30.0  | 26.6  | 30.6  | 67.7  | 228.2  | 0.04  | 4.6  | -76  | 04:45 |
| 14857 | 22/08/2026 04:40:24 | 29.8  | 30.0  | 26.9  | 30.7  | 67.9  | 230.7  | 0.04  | 4.6  | -73  | 04:40 |
| 14856 | 22/08/2026 04:35:41 | 29.8  | 30.0  | 26.8  | 30.8  | 67.9  | 228.8  | 0.04  | 4.6  | -76  | 04:35 |
| 14855 | 22/08/2026 04:30:58 | 29.9  | 30.1  | 26.8  | 30.7  | 67.8  | 230.5  | 0.04  | 4.6  | -74  | 04:30 |
| 14854 | 22/08/2026 04:26:14 | 29.9  | 30.1  | 26.9  | 31.0  | 67.8  | 229.3  | 0.04  | 4.6  | -74  | 04:26 |
| 14853 | 22/08/2026 04:21:31 | 29.9  | 30.1  | 27.0  | 30.9  | 67.7  | 231.2  | 0.04  | 4.6  | -74  | 04:21 |
| 14852 | 22/08/2026 04:16:48 | 29.9  | 30.1  | 26.9  | 30.8  | 67.8  | 230.3  | 0.04  | 4.6  | -74  | 04:16 |
| 14851 | 22/08/2026 04:12:04 | 29.9  | 30.1  | 27.1  | 31.0  | 67.8  | 228.7  | 0.04  | 4.6  | -77  | 04:12 |
| 14850 | 22/08/2026 04:07:21 | 29.9  | 30.2  | 26.9  | 30.8  | 67.7  | 230.6  | 0.04  | 4.6  | -74  | 04:07 |
| 14849 | 22/08/2026 04:02:37 | 30.0  | 30.2  | 26.9  | 31.1  | 67.8  | 228.9  | 0.04  | 4.6  | -77  | 04:02 |
| 14848 | 22/08/2026 03:57:53 | 30.0  | 30.2  | 27.1  | 30.9  | 67.8  | 229.8  | 0.04  | 4.6  | -76  | 03:57 |
| 14847 | 22/08/2026 03:53:10 | 30.1  | 30.2  | 27.2  | 31.0  | 67.8  | 228.9  | 0.04  | 4.6  | -77  | 03:53 |
| 14846 | 22/08/2026 03:48:27 | 30.1  | 30.2  | 27.1  | 31.0  | 67.7  | 230.8  | 0.04  | 4.6  | -74  | 03:48 |
| 14845 | 22/08/2026 03:43:43 | 30.1  | 30.2  | 27.2  | 30.8  | 67.7  | 228.9  | 0.04  | 4.6  | -76  | 03:43 |
| 14844 | 22/08/2026 03:39:00 | 30.1  | 30.3  | 27.1  | 31.0  | 67.6  | 229.1  | 0.04  | 4.6  | -75  | 03:39 |
| 14843 | 22/08/2026 03:34:16 | 30.1  | 30.3  | 27.2  | 31.0  | 67.6  | 230.3  | 0.04  | 4.6  | -74  | 03:34 |
| 14842 | 22/08/2026 03:29:33 | 30.1  | 30.3  | 27.1  | 31.0  | 67.9  | 228.1  | 0.04  | 4.6  | -75  | 03:29 |
| 14841 | 22/08/2026 03:24:49 | 30.2  | 30.4  | 27.2  | 31.0  | 67.7  | 230.8  | 0.04  | 4.6  | -77  | 03:24 |
| 14840 | 22/08/2026 03:20:06 | 30.2  | 30.4  | 27.2  | 31.1  | 67.7  | 230.1  | 0.04  | 4.6  | -77  | 03:20 |